| time (UTC) | temp C | wind direction | speed KPH | gust KPH | rain 1hr cm | rain 24hr cm | rain mn cm | humidity % | barometer mb |
| 20260504151014 | 16 | 267 | 14.5 | 29.0 | 0.00 | 0.00 | 0.00 | 46 | 1006.7 |
| 20260504150511 | 16 | 287 | 11.3 | 27.4 | 0.00 | 0.00 | 0.00 | 46 | 1006.8 |
| 20260504141017 | 15 | 293 | 12.9 | 38.6 | 0.00 | 0.00 | 0.00 | 49 | 1006.7 |
| 20260504140511 | 15 | 254 | 14.5 | 38.6 | 0.00 | 0.00 | 0.00 | 50 | 1006.7 |
| 20260504130511 | 9 | 274 | 0.0 | 9.7 | 0.00 | 0.00 | 0.00 | 71 | 1007.4 |
| 20260504110513 | 5 | 0 | 0.0 | 0.0 | 0.00 | 0.00 | 0.00 | 78 | 1008.2 |
| 20260504100514 | 5 | 0 | 0.0 | 0.0 | 0.00 | 0.00 | 0.00 | 79 | 1007.9 |
| 20260504081529 | 4 | 0 | 0.0 | 6.4 | 0.00 | 0.00 | 0.00 | 85 | 1008.1 |
| 20260504081018 | 3 | 0 | 1.6 | 6.4 | 0.00 | 0.00 | 0.00 | 85 | 1008.0 |
| 20260504080511 | 3 | 0 | 0.0 | 4.8 | 0.00 | 0.00 | 0.00 | 85 | 1008.1 |
| 20260504080116 | 3 | 167 | 0.0 | 3.2 | 0.00 | 0.00 | 0.00 | 85 | 1008.1 |
| 20260504050517 | 2 | 0 | 0.0 | 0.0 | 0.00 | 0.00 | 0.00 | 79 | 1008.3 |
| 20260504045510 | 2 | 0 | 0.0 | 0.0 | 0.00 | 0.00 | 0.00 | 79 | 1008.3 |
| 20260504045016 | 2 | 0 | 0.0 | 0.0 | 0.00 | 0.00 | 0.00 | 79 | 1008.4 |
| 20260504044530 | 2 | 0 | 0.0 | 0.0 | 0.00 | 0.00 | 0.00 | 79 | 1008.5 |
| 20260504044011 | 2 | 0 | 0.0 | 0.0 | 0.00 | 0.00 | 0.00 | 78 | 1008.6 |
| 20260504043515 | 2 | 0 | 0.0 | 0.0 | 0.00 | 0.00 | 0.00 | 78 | 1008.5 |
| 20260504043028 | 2 | 0 | 0.0 | 0.0 | 0.00 | 0.00 | 0.00 | 78 | 1008.6 |
| 20260504042512 | 2 | 0 | 0.0 | 0.0 | 0.00 | 0.00 | 0.00 | 77 | 1008.5 |
| 20260504042010 | 2 | 0 | 0.0 | 0.0 | 0.00 | 0.00 | 0.00 | 77 | 1008.6 |
| 20260504041530 | 2 | 0 | 0.0 | 0.0 | 0.00 | 0.00 | 0.00 | 77 | 1008.4 |
| 20260504041010 | 2 | 0 | 0.0 | 0.0 | 0.00 | 0.00 | 0.00 | 78 | 1008.5 |
| 20260504040513 | 2 | 0 | 0.0 | 0.0 | 0.00 | 0.00 | 0.00 | 78 | 1008.4 |
| 20260504040048 | 2 | 0 | 0.0 | 0.0 | 0.00 | 0.00 | 0.00 | 76 | 1008.5 |
| 20260504035515 | 2 | 0 | 0.0 | 0.0 | 0.00 | 0.00 | 0.00 | 75 | 1008.4 |
| 20260504035013 | 2 | 0 | 0.0 | 0.0 | 0.00 | 0.00 | 0.00 | 74 | 1008.5 |
| 20260504034532 | 2 | 0 | 0.0 | 0.0 | 0.00 | 0.00 | 0.00 | 73 | 1008.3 |
| 20260504034010 | 2 | 0 | 0.0 | 0.0 | 0.00 | 0.00 | 0.00 | 72 | 1008.3 |
| 20260504033513 | 2 | 0 | 0.0 | 0.0 | 0.00 | 0.00 | 0.00 | 72 | 1008.4 |
| 20260504033028 | 2 | 0 | 0.0 | 0.0 | 0.00 | 0.00 | 0.00 | 72 | 1008.5 |
| 20260504032511 | 2 | 0 | 0.0 | 0.0 | 0.00 | 0.00 | 0.00 | 72 | 1008.5 |
| 20260504032013 | 2 | 0 | 0.0 | 0.0 | 0.00 | 0.00 | 0.00 | 72 | 1008.5 |
| 20260504031528 | 2 | 0 | 0.0 | 0.0 | 0.00 | 0.00 | 0.00 | 71 | 1008.5 |
| 20260504031010 | 2 | 0 | 0.0 | 0.0 | 0.00 | 0.00 | 0.00 | 70 | 1008.5 |
| 20260504030513 | 2 | 0 | 0.0 | 0.0 | 0.00 | 0.00 | 0.00 | 70 | 1008.5 |
| 20260504030028 | 2 | 0 | 0.0 | 0.0 | 0.00 | 0.00 | 0.00 | 70 | 1008.6 |
| 20260504025511 | 2 | 0 | 0.0 | 0.0 | 0.00 | 0.00 | 0.00 | 71 | 1008.6 |
| 20260504025013 | 2 | 0 | 0.0 | 0.0 | 0.00 | 0.00 | 0.00 | 69 | 1008.5 |
| 20260504024530 | 2 | 0 | 0.0 | 0.0 | 0.00 | 0.00 | 0.00 | 68 | 1008.5 |
| 20260504024014 | 3 | 0 | 0.0 | 0.0 | 0.00 | 0.00 | 0.00 | 68 | 1008.5 |
| 20260504023514 | 3 | 0 | 0.0 | 0.0 | 0.00 | 0.00 | 0.00 | 69 | 1008.5 |
| 20260504023030 | 3 | 0 | 0.0 | 0.0 | 0.00 | 0.00 | 0.00 | 67 | 1008.6 |
| 20260504022511 | 3 | 0 | 0.0 | 0.0 | 0.00 | 0.00 | 0.00 | 67 | 1008.7 |
| 20260504022011 | 3 | 0 | 0.0 | 0.0 | 0.00 | 0.00 | 0.00 | 67 | 1008.6 |
| 20260504021531 | 3 | 0 | 0.0 | 0.0 | 0.00 | 0.00 | 0.00 | 66 | 1008.5 |
| 20260504021013 | 3 | 0 | 0.0 | 0.0 | 0.00 | 0.00 | 0.00 | 66 | 1008.5 |
| 20260504020512 | 3 | 0 | 0.0 | 0.0 | 0.00 | 0.00 | 0.00 | 65 | 1008.5 |
| 20260504020028 | 3 | 0 | 0.0 | 0.0 | 0.00 | 0.00 | 0.00 | 65 | 1008.5 |
| 20260504015510 | 3 | 0 | 0.0 | 0.0 | 0.00 | 0.00 | 0.00 | 64 | 1008.5 |
| 20260504015013 | 4 | 0 | 0.0 | 0.0 | 0.00 | 0.00 | 0.00 | 64 | 1008.3 |
| 20260504014528 | 4 | 0 | 0.0 | 0.0 | 0.00 | 0.00 | 0.00 | 64 | 1008.3 |
| 20260504014012 | 5 | 0 | 0.0 | 0.0 | 0.00 | 0.00 | 0.00 | 62 | 1008.2 |
| 20260504013512 | 5 | 0 | 0.0 | 0.0 | 0.00 | 0.00 | 0.00 | 61 | 1008.1 |
| 20260504013028 | 5 | 0 | 0.0 | 0.0 | 0.00 | 0.00 | 0.00 | 61 | 1008.1 |
| 20260504012514 | 5 | 0 | 0.0 | 0.0 | 0.00 | 0.00 | 0.00 | 60 | 1008.1 |
| 20260504012017 | 5 | 0 | 0.0 | 0.0 | 0.00 | 0.00 | 0.00 | 61 | 1008.0 |
| 20260504011529 | 5 | 0 | 0.0 | 0.0 | 0.00 | 0.00 | 0.00 | 60 | 1007.9 |
| 20260504011010 | 6 | 0 | 0.0 | 0.0 | 0.00 | 0.00 | 0.00 | 58 | 1007.8 |
| 20260504010511 | 6 | 0 | 0.0 | 0.0 | 0.00 | 0.00 | 0.00 | 58 | 1007.8 |
| 20260504010030 | 6 | 0 | 0.0 | 0.0 | 0.00 | 0.00 | 0.00 | 57 | 1007.6 |
| 20260504005511 | 6 | 0 | 0.0 | 0.0 | 0.00 | 0.00 | 0.00 | 57 | 1007.5 |
| 20260504005013 | 6 | 0 | 0.0 | 0.0 | 0.00 | 0.00 | 0.00 | 56 | 1007.5 |
| 20260504004541 | 6 | 0 | 0.0 | 0.0 | 0.00 | 0.00 | 0.00 | 54 | 1007.3 |
| 20260504004012 | 7 | 0 | 0.0 | 0.0 | 0.00 | 0.00 | 0.00 | 53 | 1007.3 |
| 20260504003514 | 7 | 0 | 0.0 | 0.0 | 0.00 | 0.00 | 0.00 | 52 | 1007.4 |
| 20260504003030 | 7 | 0 | 0.0 | 0.0 | 0.00 | 0.00 | 0.00 | 52 | 1007.3 |
| 20260504002514 | 7 | 0 | 0.0 | 0.0 | 0.00 | 0.00 | 0.00 | 52 | 1007.3 |
| 20260504002015 | 7 | 0 | 0.0 | 0.0 | 0.00 | 0.00 | 0.00 | 49 | 1007.3 |
| 20260504001528 | 8 | 0 | 0.0 | 0.0 | 0.00 | 0.00 | 0.00 | 51 | 1007.2 |
| 20260504001013 | 8 | 0 | 0.0 | 0.0 | 0.00 | 0.00 | 0.00 | 50 | 1007.1 |
| 20260504000513 | 8 | 0 | 0.0 | 0.0 | 0.00 | 0.00 | 0.00 | 49 | 1007.2 |
| 20260504000028 | 8 | 0 | 0.0 | 0.0 | 0.00 | 0.00 | 0.00 | 47 | 1007.0 |
| 20260503235511 | 8 | 0 | 0.0 | 0.0 | 0.00 | 0.00 | 0.00 | 47 | 1007.1 |
| 20260503235013 | 9 | 0 | 0.0 | 3.2 | 0.00 | 0.00 | 0.00 | 47 | 1007.0 |
| 20260503234533 | 9 | 0 | 0.0 | 3.2 | 0.00 | 0.00 | 0.00 | 47 | 1007.0 |
| 20260503234014 | 9 | 311 | 0.0 | 3.2 | 0.00 | 0.00 | 0.00 | 47 | 1006.9 |
| 20260503233510 | 9 | 0 | 0.0 | 11.3 | 0.00 | 0.00 | 0.00 | 46 | 1006.9 |
| 20260503233029 | 9 | 0 | 0.0 | 14.5 | 0.00 | 0.00 | 0.00 | 46 | 1006.8 |
| 20260503232511 | 9 | 311 | 3.2 | 14.5 | 0.00 | 0.00 | 0.00 | 46 | 1006.7 |
| 20260503232012 | 9 | 0 | 1.6 | 12.9 | 0.00 | 0.00 | 0.00 | 43 | 1006.7 |
| 20260503231528 | 9 | 0 | 0.0 | 14.5 | 0.00 | 0.00 | 0.00 | 45 | 1006.7 |
| 20260503231014 | 9 | 241 | 1.6 | 14.5 | 0.00 | 0.00 | 0.00 | 45 | 1006.7 |
| 20260503230514 | 9 | 297 | 4.8 | 17.7 | 0.00 | 0.00 | 0.00 | 44 | 1006.7 |
| 20260503230033 | 9 | 0 | 4.8 | 17.7 | 0.00 | 0.00 | 0.00 | 44 | 1006.6 |
| 20260503225513 | 9 | 293 | 1.6 | 17.7 | 0.00 | 0.00 | 0.00 | 45 | 1006.7 |
| 20260503225014 | 9 | 272 | 3.2 | 8.0 | 0.00 | 0.00 | 0.00 | 46 | 1006.8 |
| 20260503224530 | 10 | 0 | 0.0 | 4.8 | 0.00 | 0.00 | 0.00 | 47 | 1006.7 |
| 20260503224013 | 9 | 0 | 0.0 | 19.3 | 0.00 | 0.00 | 0.00 | 46 | 1006.6 |
| 20260503223514 | 10 | 0 | 1.6 | 19.3 | 0.00 | 0.00 | 0.00 | 45 | 1006.6 |
| 20260503223028 | 10 | 304 | 6.4 | 24.1 | 0.00 | 0.00 | 0.00 | 43 | 1006.5 |
| 20260503222513 | 10 | 290 | 8.0 | 24.1 | 0.00 | 0.00 | 0.00 | 45 | 1006.6 |
| 20260503222012 | 10 | 278 | 14.5 | 24.1 | 0.00 | 0.00 | 0.00 | 43 | 1006.6 |
| 20260503221530 | 10 | 260 | 11.3 | 22.5 | 0.00 | 0.00 | 0.00 | 44 | 1006.6 |
| 20260503221012 | 10 | 306 | 6.4 | 20.9 | 0.00 | 0.00 | 0.00 | 46 | 1006.6 |
| 20260503220519 | 10 | 286 | 6.4 | 20.9 | 0.00 | 0.00 | 0.00 | 44 | 1006.7 |
| 20260503220029 | 10 | 0 | 3.2 | 20.9 | 0.00 | 0.00 | 0.00 | 47 | 1006.5 |
| 20260503215512 | 10 | 243 | 1.6 | 12.9 | 0.00 | 0.00 | 0.00 | 48 | 1006.4 |
| 20260503215010 | 10 | 294 | 6.4 | 29.0 | 0.00 | 0.00 | 0.00 | 45 | 1006.6 |
| 20260503214528 | 10 | 259 | 6.4 | 29.0 | 0.00 | 0.00 | 0.00 | 46 | 1006.5 |
| 20260503214016 | 10 | 269 | 6.4 | 20.9 | 0.00 | 0.00 | 0.00 | 48 | 1006.5 |
| 20260503213514 | 10 | 273 | 9.7 | 20.9 | 0.00 | 0.00 | 0.00 | 48 | 1006.4 |
| 20260503213028 | 10 | 302 | 8.0 | 20.9 | 0.00 | 0.00 | 0.00 | 46 | 1006.4 |
| 20260503212516 | 9 | 288 | 4.8 | 20.9 | 0.00 | 0.00 | 0.00 | 49 | 1006.4 |
| 20260503212014 | 9 | 250 | 6.4 | 22.5 | 0.00 | 0.00 | 0.00 | 46 | 1006.6 |
| 20260503211527 | 9 | 294 | 11.3 | 22.5 | 0.00 | 0.00 | 0.00 | 46 | 1006.6 |
| 20260503211020 | 9 | 302 | 9.7 | 20.9 | 0.00 | 0.00 | 0.00 | 48 | 1006.5 |
| 20260503210510 | 9 | 294 | 8.0 | 17.7 | 0.00 | 0.00 | 0.00 | 47 | 1006.5 |
| 20260503210029 | 9 | 304 | 4.8 | 16.1 | 0.00 | 0.00 | 0.00 | 47 | 1006.5 |
| 20260503205517 | 9 | 259 | 8.0 | 16.1 | 0.00 | 0.00 | 0.00 | 48 | 1006.5 |
| 20260503205011 | 9 | 311 | 3.2 | 19.3 | 0.00 | 0.00 | 0.00 | 48 | 1006.5 |
| 20260503204534 | 9 | 311 | 1.6 | 19.3 | 0.00 | 0.00 | 0.00 | 50 | 1006.5 |
| 20260503204016 | 9 | 278 | 3.2 | 17.7 | 0.00 | 0.00 | 0.00 | 48 | 1006.5 |
| 20260503203516 | 9 | 317 | 4.8 | 17.7 | 0.00 | 0.00 | 0.00 | 47 | 1006.6 |
| 20260503203031 | 9 | 298 | 1.6 | 22.5 | 0.00 | 0.00 | 0.00 | 47 | 1006.5 |
| 20260503202513 | 9 | 288 | 4.8 | 22.5 | 0.00 | 0.00 | 0.00 | 46 | 1006.4 |
| 20260503202012 | 9 | 302 | 14.5 | 22.5 | 0.00 | 0.00 | 0.00 | 44 | 1006.4 |
| 20260503201532 | 9 | 321 | 6.4 | 20.9 | 0.00 | 0.00 | 0.00 | 46 | 1006.4 |
| 20260503201011 | 9 | 327 | 3.2 | 19.3 | 0.00 | 0.00 | 0.00 | 50 | 1006.5 |
| 20260503200513 | 9 | 0 | 8.0 | 19.3 | 0.00 | 0.00 | 0.00 | 45 | 1006.6 |
| 20260503200030 | 9 | 197 | 8.0 | 24.1 | 0.00 | 0.00 | 0.00 | 47 | 1006.6 |
| 20260503195513 | 9 | 296 | 14.5 | 25.7 | 0.00 | 0.00 | 0.00 | 45 | 1006.7 |
| 20260503195013 | 9 | 276 | 12.9 | 25.7 | 0.00 | 0.00 | 0.00 | 46 | 1006.7 |
| 20260503194531 | 10 | 292 | 14.5 | 25.7 | 0.00 | 0.00 | 0.00 | 45 | 1006.7 |
| 20260503194014 | 10 | 335 | 12.9 | 25.7 | 0.00 | 0.00 | 0.00 | 45 | 1006.9 |
| 20260503193517 | 10 | 301 | 12.9 | 25.7 | 0.00 | 0.00 | 0.00 | 47 | 1006.8 |
| 20260503193038 | 9 | 300 | 6.4 | 20.9 | 0.00 | 0.00 | 0.00 | 47 | 1006.7 |
| 20260503192513 | 9 | 291 | 11.3 | 24.1 | 0.00 | 0.00 | 0.00 | 46 | 1006.8 |
| 20260503192014 | 9 | 288 | 11.3 | 29.0 | 0.00 | 0.00 | 0.00 | 46 | 1006.7 |
| 20260503191530 | 9 | 299 | 14.5 | 29.0 | 0.00 | 0.00 | 0.00 | 45 | 1006.8 |
| 20260503191014 | 9 | 278 | 14.5 | 24.1 | 0.00 | 0.00 | 0.00 | 44 | 1006.9 |
| 20260503190513 | 9 | 294 | 8.0 | 22.5 | 0.00 | 0.00 | 0.00 | 49 | 1006.9 |
| 20260503190032 | 9 | 290 | 8.0 | 25.7 | 0.00 | 0.00 | 0.00 | 48 | 1006.8 |
| 20260503185514 | 9 | 319 | 11.3 | 25.7 | 0.00 | 0.00 | 0.00 | 45 | 1006.7 |
| 20260503185017 | 9 | 316 | 12.9 | 20.9 | 0.00 | 0.00 | 0.00 | 45 | 1006.8 |
| 20260503184530 | 9 | 298 | 8.0 | 30.6 | 0.00 | 0.00 | 0.00 | 46 | 1006.9 |
| 20260503184014 | 9 | 302 | 16.1 | 30.6 | 0.00 | 0.00 | 0.00 | 45 | 1006.8 |
| 20260503183512 | 9 | 281 | 14.5 | 24.1 | 0.00 | 0.00 | 0.00 | 45 | 1006.7 |
| 20260503183030 | 10 | 325 | 12.9 | 22.5 | 0.00 | 0.00 | 0.00 | 46 | 1006.7 |
| 20260503182512 | 10 | 305 | 12.9 | 22.5 | 0.00 | 0.00 | 0.00 | 44 | 1006.7 |
| 20260503182013 | 10 | 303 | 16.1 | 22.5 | 0.00 | 0.00 | 0.00 | 43 | 1006.5 |
| 20260503181528 | 10 | 309 | 9.7 | 29.0 | 0.00 | 0.00 | 0.00 | 48 | 1006.5 |
| 20260503181014 | 10 | 233 | 9.7 | 29.0 | 0.00 | 0.00 | 0.00 | 49 | 1006.4 |
| 20260503180511 | 10 | 310 | 11.3 | 29.0 | 0.00 | 0.00 | 0.00 | 47 | 1006.4 |
| 20260503180032 | 11 | 259 | 11.3 | 29.0 | 0.00 | 0.00 | 0.00 | 47 | 1006.2 |
| 20260503175511 | 11 | 255 | 11.3 | 32.2 | 0.00 | 0.00 | 0.00 | 49 | 1006.2 |
| 20260503175010 | 10 | 292 | 16.1 | 32.2 | 0.00 | 0.00 | 0.00 | 46 | 1006.2 |
| 20260503174532 | 10 | 297 | 16.1 | 29.0 | 0.00 | 0.00 | 0.00 | 43 | 1006.3 |
| 20260503174014 | 10 | 305 | 8.0 | 27.4 | 0.00 | 0.00 | 0.00 | 49 | 1006.3 |
| 20260503173511 | 10 | 320 | 11.3 | 27.4 | 0.00 | 0.00 | 0.00 | 46 | 1006.4 |
| 20260503173029 | 10 | 295 | 12.9 | 25.7 | 0.00 | 0.00 | 0.00 | 48 | 1006.2 |
| 20260503172511 | 10 | 315 | 16.1 | 33.8 | 0.00 | 0.00 | 0.00 | 46 | 1006.2 |
| 20260503172013 | 9 | 288 | 14.5 | 33.8 | 0.00 | 0.00 | 0.00 | 47 | 1006.2 |
| 20260503171528 | 10 | 319 | 14.5 | 29.0 | 0.00 | 0.00 | 0.00 | 46 | 1006.1 |
| 20260503171014 | 10 | 261 | 12.9 | 30.6 | 0.00 | 0.00 | 0.00 | 43 | 1006.3 |
| 20260503170514 | 10 | 297 | 16.1 | 30.6 | 0.00 | 0.00 | 0.00 | 43 | 1006.3 |